Location: Degersen
(52.2871°N, 9.5716°E)
Time: 14:20:31
(UTC+00:00)

Cosmos 1805 Rocket - Visible Passes

Search period start: 11 April 2026 00:00
Search period end: 21 April 2026 00:00
Orbit: 600 x 621 km, 82.5° (Epoch: 11 April)

Date Brightness Start Highest point End Pass type
(mag) Time Alt. Az. Time Alt. Az. Time Alt. Az.
11 Apr 7.2 03:04:58 10° NNE 03:06:59 13° ENE 03:08:57 10° E visible
11 Apr 5.9 18:54:52 10° SW 18:58:45 30° WNW 19:02:42 10° N visible
12 Apr 6.8 03:18:49 10° NNE 03:21:59 19° ENE 03:25:07 10° ESE visible
12 Apr 6.7 19:10:22 10° WSW 19:13:40 20° WNW 19:17:00 10° NNW visible
13 Apr 6.1 03:33:04 10° N 03:36:54 28° ENE 03:40:42 10° SE visible
13 Apr 7.2 19:26:21 10° W 19:28:39 14° WNW 19:30:58 10° NNW visible
14 Apr 5.1 03:47:31 10° N 03:51:45 42° ENE 03:55:56 10° SE visible
15 Apr 7.2 02:26:42 10° NE 02:27:54 11° NE 02:29:04 10° ENE visible
16 Apr 6.8 02:40:07 10° NNE 02:42:56 16° ENE 02:45:42 10° E visible
17 Apr 6.2 02:54:16 10° NNE 02:57:53 24° ENE 03:01:27 10° ESE visible
18 Apr 5.4 03:08:39 10° N 03:12:45 36° ENE 03:16:48 10° SE visible
18 Apr 7.5 19:03:32 10° WNW 19:04:37 11° NW 19:05:42 10° NW visible
19 Apr 4.4 03:23:10 10° N 03:27:33 57° ENE 03:31:52 10° SSE visible
20 Apr 6.7 02:01:30 10° NNE 02:03:51 14° ENE 02:06:11 10° E visible
